Location: Taipo
(41.0000°S, 175.9500°E)
Time: 12:06:47
(UTC+00:00)

CZ-2D R/B - Pass Details

Date: 18 April 2024
Orbit: 541 x 615 km, 98.0° (Epoch: 24 May)

Event Time Altitude Azimuth Distance (km) Brightness Sun altitude
Rises 17:35:27 0° 346° (NNW) 2,881 6.9 -14.8°
Reaches altitude 10° 17:37:55 10° 333° (NNW) 1,989 5.9 -14.3°
Maximum altitude 17:41:34 26° 275° (W) 1,230 4.5 -13.7°
Drops below altitude 10° 17:45:16 10° 218° (SW) 2,010 5.8 -13.0°
Sets 17:47:47 0° 205° (SSW) 2,920 6.7 -12.5°
